Regional Weather Roundup
Issued by NWS Newport/Morehead, NC

Current Version | Previous Version | Text Only | Print | Product List | Glossary On
Versions: 1 2 3 4 5 6 7 8 9 10 11 12 13 14 15 16 17 18 19 20 21 22 23 24 25 26 27 28 29 30 31 32 33 34 35 36 37 38 39 40 41 42 43 44 45 46 47 48 49 50
000
ASUS42 KMHX 281813
RWRMHX
WEATHER ROUNDUP FOR EASTERN NORTH CAROLINA
NATIONAL WEATHER SERVICE NEWPORT/MOREHEAD CITY NC
200 PM EDT THU JUL 28 2016

NOTE: "FAIR" INDICATES FEW OR NO CLOUDS BELOW 12,000 FEET
WITH NO SIGNIFICANT WEATHER AND/OR OBSTRUCTIONS TO VISIBILITY

NCZ015>017-031-032-045>047-102-103-281900-
NORTH COAST

CITY           SKY/WX    TMP DP  RH WIND       PRES   REMARKS
EDENTON        SUNNY     95  78  56 S5        29.89F HX 111
ELIZABETH CITY SUNNY     93  79  63 SW8       29.88F HX 110
KITTY HAWK     CLEAR     99  78  51 S6        29.88F HX 115
MANTEO           N/A     91  83  77 S13       29.90F HX 113

$$

NCZ045>047-081-094-103-104-281900-
CENTRAL COAST

CITY           SKY/WX    TMP DP  RH WIND       PRES   REMARKS
FRISCO         SUNNY     87  81  82 SW8       29.92F HX 104

$$

NCZ095-097-098-100-101-281900-
SOUTHERN COAST

CITY           SKY/WX    TMP DP  RH WIND       PRES   REMARKS
BEAUFORT       NOT AVBL
CEDAR ISLAND   NOT AVBL
JACKSONVILLE   MOSUNNY   96  74  48 SW6       29.91F HX 107
PINEY ISLAND   NOT AVBL
WILMINGTON     SUNNY     95  71  45 W12       29.93F HX 102


$$

NCZ011>013-027>030-043-044-078>080-089-090>093-098-281900-
COASTAL PLAIN

CITY           SKY/WX    TMP DP  RH WIND       PRES   REMARKS
AHOSKIE        SUNNY     92  80  68 S5        29.88F HX 109
CLINTON        SUNNY     96  73  47 SW9       29.92F HX 105
ELIZABETHTOWN  SUNNY     95  71  44 SW9       29.93F HX 102
GOLDSBORO      MOSUNNY   98  70  40 SW16      29.88F HX 106
GREENVILLE     MOSUNNY   95  77  55 S7        29.91F HX 109
HAVELOCK       MOSUNNY   94  77  57 SW10      29.91F HX 108
KENANSVILLE    NOT AVBL
KINSTON        MOSUNNY   97  72  44 SW9       29.91F HX 105
NEW BERN       MOSUNNY   95  76  53 SW7       29.91F HX 108
RICHLANDS      MOSUNNY   99  75  46 SW8G16    29.92F HX 112
ROCKY MOUNT    SUNNY     95  76  53 S13       29.89F HX 108
WASHINGTON     SUNNY     94  79  62 SW8       29.89F HX 111
WHITEVILLE     SUNNY     94  70  45 SW8       29.94F HX 100

$$

AMZ130-135-150-152-154-156-158-170-250-252-270-ANZ085-086-088-633-658-670-281900-
MARINE OBSERVATIONS

STATION/POSITION TIME  TEMP    WIND        PRES    WAVE   SWELL
                       AIR SEA DIR/SP/G            HT/PER HT/PER
                 (UTC) (F)     (DEG/KT/KT) (MB)    (FT/S) (FT/S)
CHESAPEAKE LIGHT NOT AVBL
64 E VA BEACH    1750   83 84  200/ 10/ 12 1012.2    2/ 8   2/ 8
DUCK             1700   82 76  140/  9/  9 1012.0
2 E DUCK         1711      80                N/A     1/ 8
OREGON INLET     1700   86 84  180/ 11/ 12 1012.8
13E OREGON INLT  1800      84                N/A     2/ 8   2/ 8
HATTERAS CG      1700   86 83  210/  7/ 12 1013.2
DIAMOND BUOY     1750   85 85  220/ 12/ 14 1013.0    2/ 6   2/ 8
CAPE LOOKOUT     1800   87     230/ 11/ 14 1013.0
BEAUFORT LAB     1700   88 83  220/  6/ 11 1013.1
30 SE NEW RVR IN 1708   86 85  230/ 12/ 17 1014.2
30 SE NEW RVR IN 1725      85                N/A     3/ 6
27 SE WRIGHTSVLE 1708   85 85  220/ 12/ 16 1014.7
5 SE WRIGHTSVLE  1708   84 82  200/ 10/ 12 1014.9
225 S CAPE HAT   1750   82 85  270/ 14/ 16 1016.0    3/ 6   2/ 8
41 SE CHARLESTON 1750   86 87  230/  8/ 10 1015.6    3/ 5   3/ 5

$$




USA.gov is the U.S. government's official web portal to all federal, state and local government web resources and services.